User: anonymous   Login
Location: Munich
(48.1349°N, 11.5617°E)
Time: 04:24:31
(UTC+02:00)
Language:

ISS - Orbit

View from above orbital plane
View from above orbital plane
View from above satellite
View from above satellite

Ground track
Ground track

The orbit data is extracted from the following two-line orbital elements,

1 25544U 98067A   18291.55072899  .00016717  00000-0  10270-3 0  9036
2 25544  51.6372 123.9658 0004049 303.8498  56.2269 15.53795356 17694
Epoch (UTC): 18 October 2018 13:13:02
Eccentricity: 0.0004049
inclination: 51.6372°
perigee height: 403 km
apogee height: 408 km
right ascension of ascending node: 123.9658°
argument of perigee: 303.8498°
revolutions per day: 15.53795356
mean anomaly at epoch: 56.2269°
orbit number at epoch: 1769

The dashed part of the orbit path shows where the satellite is in the earth's shadow,  

DLR